EW7670 Weather Reports


Display with metric or nautical units.
time (UTC)temp
F
wind
direction
speed
MPH
gust
MPH
rain 1hr
in
rain 24hr
in
rain mn
in
humidity
%
barometer
mb
20260509040100 64 142 2.0 5.0 0.00 0.00 0.00 80 1014.9
20260509023136 64 135 5.0 10.0 0.00 0.00 0.00 75 1015.6
20260508234516 63 146 5.0 8.0 0.00 0.00 0.00 67 1014.5
20260508220123 64 134 5.0 9.0 0.00 0.03 0.00 60 1014.2
20260508214611 63 103 5.0 9.0 0.00 0.03 0.00 61 1014.3
20260508184525 63 46 9.0 16.0 0.00 0.25 0.00 61 1015.4
20260508180012 63 54 10.0 18.0 0.00 0.28 0.00 63 1015.2
20260508150037 61 42 12.0 20.0 0.00 0.30 0.00 82 1015.6
20260508140155 62 3 11.0 16.0 0.00 0.32 0.00 79 1014.9
20260508101507 54 356 10.0 20.0 0.00 0.43 0.00 90 1012.7
20260508091619 54 346 13.0 22.0 0.00 0.43 0.00 89 1011.7
20260508081523 54 327 11.0 16.0 0.00 0.49 0.00 87 1011.0
20260508073109 55 8 10.0 19.0 0.00 0.49 0.00 86 1010.9
20260508071639 55 333 7.0 18.0 0.00 0.49 0.00 87 1010.8
20260508063128 55 337 7.0 15.0 0.00 0.49 0.00 89 1010.4
20260508060041 55 345 11.0 20.0 0.00 0.49 0.00 89 1010.2
20260508054549 55 352 8.0 16.0 0.00 0.49 0.00 89 1010.4
20260508053034 55 359 12.0 20.0 0.00 0.49 0.00 89 1010.1
20260508051528 56 35 9.0 16.0 0.00 0.49 0.00 88 1010.0
20260508050039 56 341 9.0 15.0 0.00 0.49 0.00 88 1010.2
20260508044536 56 27 9.0 18.0 0.00 0.49 0.00 88 1009.9
20260508043053 57 356 10.0 16.0 0.00 0.49 0.00 88 1009.4
20260508041543 57 352 11.0 20.0 0.00 0.49 0.00 87 1009.6